Weather History for Joplin, MO

Change the Weather History Date:

Thursday, April 4, 2013

  Actual Average Record
Temperature  
Mean Temperature 50 °F 55 °F  
Max Temperature 60 °F 67 °F 84 °F (1988)
Min Temperature 39 °F 43 °F 24 °F (1987)
Degree Days  
Heating Degree Days 15 11  
Month to date heating degree days 82 46  
Since 1 July heating degree days 3855 3808  
Cooling Degree Days 0 1  
Month to date cooling degree days 0 4  
Year to date cooling degree days 1 14  
Moisture  
Dew Point 30 °F    
Average Humidity 54    
Maximum Humidity 76    
Minimum Humidity 31    
Precipitation  
Precipitation 0.00 in 0.12 in 1.55 in (1964)
Month to date precipitation 0.14 0.48  
Year to date precipitation 7.99 8.25  
Snow  
Snow 0.00 in - - ()
Month to date snowfall T  
Snow Depth 0.00 in    
Sea Level Pressure  
Sea Level Pressure 30.14 in    
Wind  
Wind Speed 4 mph (NE)    
Max Wind Speed 10 mph    
Max Gust Speed 16 mph    
Visibility 10 miles    
Events      
T = Trace of Precipitation, MM = Missing Value Source: NWS Daily Summary

Daily Weather History Graph

Daily Weather History Graph

Search for Another Location

Airport:

Trip Planner

Search our weather history database for the weather conditions in past years. The results will help you decide how hot, cold, wet, or windy it might be!

Date:

Astronomy

Apr. 04, 2013 Rise Set
Actual Time 6:58 AM CDT 7:43 PM CDT
Civil Twilight 6:32 AM CDT 8:09 PM CDT
Nautical Twilight 6:01 AM CDT 8:40 PM CDT
Astronomical Twilight 5:29 AM CDT 9:13 PM CDT
Moon 3:18 AM CDT (4/4) 2:09 PM CDT (4/4)
Length of Visible Light 13h 37m
Length of Day
12h 44m
Waning Crescent, 33% of the Moon is Illuminated
Apr 4
Waning Crescent
Apr 10
New
Apr 18
First Quarter
Apr 25
Full
May 2
Last Quarter

Hourly Weather History & Observations

Time (CDT) Temp. Windchill Dew Point Humidity Pressure Visibility Wind Dir Wind Speed Gust Speed Precip Events Conditions
12:53 AM 44.1 °F 42.5 °F 28.0 °F 53% 30.18 in 10.0 mi NNE 3.5 mph - N/A   Overcast
1:53 AM 43.0 °F 39.5 °F 30.9 °F 62% 30.18 in 10.0 mi NNW 5.8 mph - N/A   Overcast
2:53 AM 43.0 °F 40.3 °F 28.9 °F 58% 30.16 in 10.0 mi NNE 4.6 mph - N/A   Overcast
3:53 AM 43.0 °F 41.3 °F 28.9 °F 58% 30.16 in 10.0 mi ENE 3.5 mph - N/A   Overcast
4:53 AM 43.0 °F 41.3 °F 30.0 °F 60% 30.16 in 10.0 mi SE 3.5 mph - N/A   Overcast
5:53 AM 43.0 °F 38.8 °F 30.9 °F 62% 30.16 in 10.0 mi SSE 6.9 mph - N/A   Overcast
6:53 AM 43.0 °F 38.8 °F 30.0 °F 60% 30.17 in 10.0 mi SE 6.9 mph - N/A   Overcast
7:53 AM 42.1 °F 40.2 °F 32.0 °F 67% 30.17 in 10.0 mi SSE 3.5 mph - N/A   Overcast
8:53 AM 44.1 °F - 32.0 °F 63% 30.16 in 10.0 mi Calm Calm - N/A   Overcast
9:53 AM 46.0 °F - 32.0 °F 58% 30.15 in 10.0 mi Calm Calm - N/A   Scattered Clouds
10:53 AM 51.1 °F - 30.9 °F 46% 30.14 in 10.0 mi Calm Calm - N/A   Clear
11:53 AM 53.1 °F - 32.0 °F 45% 30.14 in 10.0 mi NW 5.8 mph - N/A   Clear
12:53 PM 55.0 °F - 30.9 °F 40% 30.14 in 10.0 mi Variable 5.8 mph - N/A   Mostly Cloudy
1:53 PM 55.9 °F - 32.0 °F 40% 30.12 in 10.0 mi North 10.4 mph - N/A   Mostly Cloudy
2:53 PM 57.0 °F - 28.0 °F 33% 30.11 in 10.0 mi NNE 10.4 mph 16.1 mph N/A   Overcast
3:53 PM 57.0 °F - 28.9 °F 34% 30.09 in 10.0 mi NNE 6.9 mph - N/A   Overcast
4:53 PM 59.0 °F - 28.0 °F 31% 30.08 in 10.0 mi North 8.1 mph 16.1 mph N/A   Mostly Cloudy
5:53 PM 55.9 °F - 28.9 °F 36% 30.09 in 10.0 mi North 6.9 mph - N/A   Overcast
6:53 PM 57.0 °F - 28.0 °F 33% 30.09 in 10.0 mi NNW 8.1 mph - N/A   Overcast
7:53 PM 53.1 °F - 28.0 °F 38% 30.09 in 10.0 mi Calm Calm - N/A   Clear
8:53 PM 48.0 °F - 30.0 °F 50% 30.11 in 10.0 mi Calm Calm - N/A   Clear
9:53 PM 45.0 °F - 30.9 °F 58% 30.13 in 10.0 mi Calm Calm - N/A   Clear
10:53 PM 41.0 °F - 30.9 °F 67% 30.14 in 10.0 mi Calm Calm - N/A   Clear
11:53 PM 39.9 °F 37.8 °F 32.0 °F 73% 30.14 in 10.0 mi SSE 3.5 mph - N/A   Clear